Terug naar catalogus

THOR ABLESTAR DEB

ActiefLEO
NORAD 134·DEBRIS·🇺🇸 United States

Gelanceerd Jun 29, 1961 vanaf Cape Canaveral Space Force Station

Loading…

Volgende Passages (komende 24 uur)

TLE

VersSource: Space-Track

Epoch: Sep 14, 2026, 19:11 UTC

1 00134U 61015U   26257.79992288  .00000051  00000-0  88156-4 0  9995
2 00134  66.8801 186.1090 0076351 130.2068 230.5730 13.97786476318220

Volg THOR ABLESTAR DEB in realtime met AllMySat

Download on the App Store